Location: Unspecified
(0.0000°N, 0.0000°E)
Time: 20:20:30
(UTC+00:00)

LEMUR 2 VALHALLA - Visible Passes

Search period start: 14 January 2025 00:00
Search period end: 24 January 2025 00:00
Orbit: 489 x 508 km, 97.5° (Epoch: 14 January)

Date Brightness Start Highest point End Pass type
(mag) Time Alt. Az. Time Alt. Az. Time Alt. Az.
14 Jan ? 18:50:38 10° NNE 18:54:15 83° ESE 18:57:52 10° S visible
16 Jan ? 19:46:17 10° NW 19:47:44 12° W 19:49:12 10° WSW visible
17 Jan ? 19:24:43 10° NNW 19:27:43 25° WNW 19:30:45 10° SW visible
18 Jan ? 19:04:08 10° N 19:07:41 55° W 19:11:14 10° SSW visible
19 Jan ? 18:44:02 10° NNE 18:47:36 62° ESE 18:51:12 10° S visible
21 Jan ? 19:38:36 10° NW 19:40:50 16° WNW 19:43:05 10° WSW visible
22 Jan ? 19:17:25 10° NNW 19:20:41 33° W 19:23:59 10° SW visible
23 Jan ? 18:56:54 10° N 19:00:31 77° W 19:04:09 10° SSW visible
